Weather History for Blythe, CA

Change the Weather History Date:

Tuesday, March 25, 2014

  Actual Average Record
Temperature  
Mean Temperature 72 °F -  
Max Temperature 91 °F 80 °F 95 °F (1981)
Min Temperature 54 °F 53 °F 45 °F (1995)
Cooling Degree Days 8    
Growing Degree Days 22 (Base 50)    
Moisture  
Dew Point 24 °F    
Average Humidity 17    
Maximum Humidity 39    
Minimum Humidity 7    
Precipitation  
Precipitation 0.00 in - - ()
Sea Level Pressure  
Sea Level Pressure 29.77 in    
Wind  
Wind Speed 5 mph (SSW)    
Max Wind Speed 18 mph    
Max Gust Speed 21 mph    
Visibility 10 miles    
Events      
Averages and records for this station are not official NWS values.
T = Trace of Precipitation, MM = Missing Value Source: NWS Daily Summary

Daily Weather History Graph

Daily Weather History Graph

Search for Another Location

Airport:

Trip Planner

Search our weather history database for the weather conditions in past years. The results will help you decide how hot, cold, wet, or windy it might be!

Date:

Astronomy

Mar. 25, 2014 Rise Set
Actual Time 6:35 AM PDT 6:54 PM PDT
Civil Twilight 6:10 AM PDT 7:19 PM PDT
Nautical Twilight 5:41 AM PDT 7:48 PM PDT
Astronomical Twilight 5:12 AM PDT 8:18 PM PDT
Moon 2:46 AM PDT 1:43 PM PDT
Length of Visible Light 13h 08m
Length of Day
12h 18m
Waning Crescent, 31% of the Moon is Illuminated
Mar 25
Waning Crescent
Mar 30
New
Apr 7
First Quarter
Apr 15
Full
Apr 22
Last Quarter

Hourly Weather History & Observations

Time (PDT) Temp. Dew Point Humidity Pressure Visibility Wind Dir Wind Speed Gust Speed Precip Events Conditions
12:52 AM 63.0 °F 21.9 °F 21% 29.87 in 10.0 mi Calm Calm - N/A   Clear
1:52 AM 64.0 °F 19.9 °F 18% 29.85 in 10.0 mi Calm Calm - N/A   Clear
2:52 AM 60.1 °F 19.0 °F 20% 29.83 in 10.0 mi North 8.1 mph - N/A   Clear
3:52 AM 57.9 °F 19.9 °F 23% 29.83 in 10.0 mi North 8.1 mph - N/A   Clear
4:52 AM 57.9 °F 19.9 °F 23% 29.82 in 10.0 mi NW 5.8 mph - N/A   Clear
5:52 AM 55.9 °F 18.0 °F 23% 29.83 in 10.0 mi Calm Calm - N/A   Clear
6:52 AM 54.0 °F 18.0 °F 24% 29.84 in 10.0 mi Calm Calm - N/A   Clear
7:52 AM 60.1 °F 25.0 °F 26% 29.85 in 10.0 mi Calm Calm - N/A   Clear
8:52 AM 69.1 °F 21.9 °F 17% 29.86 in 10.0 mi Calm Calm - N/A   Clear
9:52 AM 75.0 °F 23.0 °F 14% 29.86 in 10.0 mi Variable 4.6 mph - N/A   Clear
10:52 AM 75.9 °F 23.0 °F 14% 29.85 in 10.0 mi ESE 4.6 mph - N/A   Clear
11:52 AM 82.0 °F 26.1 °F 13% 29.83 in 10.0 mi Calm Calm - N/A   Clear
12:52 PM 84.9 °F 21.0 °F 10% 29.79 in 10.0 mi SE 5.8 mph - N/A   Clear
1:52 PM 87.1 °F 24.1 °F 10% 29.75 in 10.0 mi ESE 8.1 mph - N/A   Clear
2:52 PM 89.1 °F 17.1 °F 7% 29.72 in 10.0 mi Variable 4.6 mph - N/A   Clear
3:52 PM 90.0 °F 23.0 °F 9% 29.69 in 10.0 mi South 10.4 mph - N/A   Clear
4:52 PM 91.0 °F 21.0 °F 8% 29.67 in 10.0 mi SW 12.7 mph 17.3 mph N/A   Clear
5:52 PM 89.1 °F 21.0 °F 8% 29.66 in 10.0 mi SW 15.0 mph - N/A   Clear
6:52 PM 86.0 °F 19.0 °F 8% 29.65 in 10.0 mi SW 11.5 mph - N/A   Clear
7:52 PM 82.9 °F 21.0 °F 10% 29.65 in 10.0 mi SSW 12.7 mph - N/A   Clear
8:52 PM 80.1 °F 33.1 °F 18% 29.66 in 10.0 mi SSW 9.2 mph - N/A   Clear
9:52 PM 79.0 °F 30.0 °F 17% 29.67 in 10.0 mi SW 11.5 mph - N/A   Clear
10:52 PM 70.0 °F 44.1 °F 39% 29.68 in 9.0 mi South 13.8 mph 20.7 mph N/A   Clear
11:52 PM 70.0 °F 42.1 °F 36% 29.68 in 10.0 mi South 18.4 mph - N/A   Clear